Zurück zum Katalog

HULIANWANG DIGUI-162

AktivKommunikationLEO
NORAD 68136·PAYLOAD·🇨🇳 China

Gestartet Mar 12, 2026 von Wenchang Space Launch Site

Loading…

Nächste Überflüge (nächste 24 Stunden)

TLE

AktuellSource: Space-Track

Epoche: Sep 14, 2026, 22:26 UTC

1 68136U 26047H   26257.93520439 -.00000103  00000-0  45970-4 0  9994
2 68136  50.0055  94.0382 0001264  71.9755 288.1255 13.29324536 25000

Verfolge HULIANWANG DIGUI-162 in Echtzeit mit AllMySat

Download on the App Store